FW9696 Weather Reports


time (UTC)temp
C
wind
direction
speed
KPH
gust
KPH
rain 1hr
cm
rain 24hr
cm
rain mn
cm
humidity
%
barometer
mb
20260506202049 10 81 0.0 4.8 0.18 1.88 1.45 96 1004.9
20260506201601 10 0 0.0 4.8 0.18 1.85 1.42 96 1004.9
20260506201048 10 0 1.6 6.4 0.18 1.85 1.42 96 1004.9
20260506200546 10 0 1.6 6.4 0.13 1.80 1.37 96 1004.9
20260506200059 10 51 3.2 6.4 0.13 1.80 1.37 96 1004.7
20260506195547 11 28 1.6 9.7 0.13 1.80 1.37 96 1004.7
20260506195046 11 77 0.0 9.7 0.13 1.78 1.32 96 1004.6
20260506194602 11 71 3.2 8.0 0.13 1.78 1.32 96 1004.6
20260506194046 12 0 1.6 8.0 0.13 1.75 1.32 96 1004.5
20260506193547 12 42 3.2 8.0 0.13 1.75 1.32 96 1004.5
20260506193049 13 15 3.2 8.0 0.13 1.73 1.30 96 1004.5
20260506192551 13 132 0.0 4.8 0.13 1.73 1.30 96 1004.4
20260506192045 14 0 0.0 3.2 0.10 1.70 1.27 97 1004.4
20260506191551 14 0 0.0 3.2 0.08 1.68 1.24 97 1004.3
20260506191047 15 0 0.0 3.2 0.08 1.68 1.24 97 1004.5
20260506190550 14 0 0.0 3.2 0.08 1.68 1.24 97 1004.5
20260506190054 14 240 0.0 3.2 0.10 1.68 1.24 97 1004.6
20260506185546 14 0 0.0 4.8 0.10 1.68 1.24 97 1004.6
20260506185049 14 0 1.6 4.8 0.10 1.65 1.22 97 1004.6
20260506184604 14 0 0.0 3.2 0.13 1.65 1.22 97 1004.6
20260506184047 14 0 0.0 3.2 0.13 1.63 1.19 97 1004.7
20260506183546 14 0 0.0 3.2 0.15 1.63 1.19 97 1004.5
20260506183100 14 0 0.0 3.2 0.15 1.60 1.17 97 1004.5
20260506182545 14 0 0.0 3.2 0.15 1.60 1.17 97 1004.6
20260506182047 15 0 0.0 1.6 0.18 1.60 1.17 98 1004.6
20260506181549 14 0 0.0 3.2 0.20 1.60 1.17 97 1004.7
20260506181046 13 0 0.0 3.2 0.23 1.60 1.17 97 1004.7
20260506180547 13 0 0.0 3.2 0.25 1.60 1.17 97 1004.9
20260506180054 13 0 0.0 3.2 0.25 1.57 1.14 97 1005.0
20260506175545 13 36 0.0 4.8 0.28 1.57 1.14 97 1004.9
20260506175045 13 0 0.0 4.8 0.25 1.55 1.12 97 1005.1
20260506174552 13 352 0.0 4.8 0.25 1.52 1.09 97 1005.2
20260506174045 13 0 0.0 3.2 0.25 1.47 1.07 97 1005.3
20260506173547 13 0 0.0 3.2 0.23 1.47 1.04 97 1005.3
20260506173053 13 0 1.6 3.2 0.25 1.45 1.02 97 1005.3
20260506172549 13 0 0.0 3.2 0.30 1.45 1.02 97 1005.5
20260506172046 13 0 0.0 4.8 0.30 1.42 0.99 97 1005.5
20260506171553 13 321 0.0 4.8 0.30 1.40 0.97 97 1005.6
20260506171050 13 336 1.6 4.8 0.28 1.37 0.94 97 1005.5
20260506170545 13 0 0.0 3.2 0.28 1.32 0.91 97 1005.6
20260506170107 13 334 0.0 3.2 0.28 1.32 0.89 97 1005.6
20260506165548 13 334 0.0 3.2 0.25 1.30 0.86 97 1005.6
20260506165048 13 0 0.0 1.6 0.28 1.30 0.86 97 1005.5
20260506164551 13 0 0.0 3.2 0.25 1.27 0.84 97 1005.7
20260506164046 13 0 0.0 4.8 0.25 1.24 0.81 97 1005.7
20260506163545 13 334 0.0 4.8 0.25 1.24 0.81 97 1005.8
20260506163102 13 334 0.0 3.2 0.20 1.19 0.76 97 1005.8
20260506162545 13 0 0.0 3.2 0.18 1.14 0.71 97 1005.8
20260506162045 13 0 0.0 3.2 0.15 1.12 0.69 97 1005.8
20260506161551 13 0 0.0 3.2 0.15 1.09 0.66 97 1006.0
20260506161045 13 0 0.0 3.2 0.15 1.09 0.66 97 1006.1
20260506160545 13 0 0.0 3.2 0.15 1.07 0.64 97 1006.2
20260506160053 13 319 0.0 3.2 0.13 1.04 0.61 97 1006.3
20260506155545 13 0 0.0 3.2 0.15 1.04 0.61 97 1006.3
20260506155048 12 0 0.0 1.6 0.15 1.02 0.58 97 1006.4
20260506154559 12 0 0.0 1.6 0.15 1.02 0.58 97 1006.5
20260506154046 12 0 0.0 1.6 0.15 0.99 0.56 97 1006.4
20260506153546 12 0 0.0 3.2 0.15 0.99 0.56 97 1006.7
20260506153058 12 0 0.0 3.2 0.15 0.99 0.56 97 1006.7
20260506152545 12 0 0.0 4.8 0.13 0.97 0.53 97 1006.8
20260506152046 12 0 0.0 4.8 0.15 0.97 0.53 97 1006.8
20260506151609 12 355 0.0 3.2 0.13 0.94 0.51 97 1006.8
20260506151048 12 355 0.0 3.2 0.13 0.94 0.51 97 1006.8
20260506150545 12 0 0.0 1.6 0.10 0.91 0.48 98 1007.0
20260506150100 12 355 0.0 1.6 0.13 0.91 0.48 97 1007.1
20260506145546 12 0 0.0 3.2 0.10 0.86 0.43 97 1007.1
20260506145049 12 355 0.0 3.2 0.10 0.86 0.43 97 1007.2
20260506144605 12 0 0.0 3.2 0.13 0.86 0.43 97 1007.2
20260506144047 12 0 0.0 3.2 0.10 0.84 0.41 97 1007.2
20260506143547 12 355 0.0 3.2 0.10 0.84 0.41 97 1007.2
20260506143109 12 355 0.0 3.2 0.10 0.84 0.41 98 1007.1
20260506142545 12 355 0.0 3.2 0.10 0.84 0.41 98 1007.2
20260506142045 12 0 0.0 3.2 0.10 0.81 0.38 98 1007.2
20260506141600 12 0 0.0 1.6 0.10 0.81 0.38 98 1007.1
20260506141046 12 0 0.0 1.6 0.10 0.81 0.38 98 1007.2
20260506140549 12 0 0.0 1.6 0.08 0.79 0.36 98 1007.1
20260506140056 12 0 0.0 1.6 0.10 0.79 0.36 98 1007.2
20260506135545 12 355 0.0 1.6 0.08 0.76 0.33 98 1007.3
20260506135045 12 0 0.0 1.6 0.08 0.76 0.33 98 1007.2
20260506134553 12 0 0.0 4.8 0.08 0.74 0.30 98 1007.3
20260506134046 12 0 0.0 4.8 0.08 0.74 0.30 98 1007.1
20260506133545 12 328 0.0 4.8 0.08 0.74 0.30 98 1007.2
20260506133052 12 0 0.0 4.8 0.08 0.74 0.30 98 1007.2
20260506132545 12 55 1.6 4.8 0.08 0.74 0.30 98 1007.3
20260506132051 12 62 0.0 1.6 0.05 0.71 0.28 98 1007.4
20260506131555 12 0 0.0 1.6 0.05 0.71 0.28 98 1007.4
20260506131050 12 61 0.0 1.6 0.08 0.71 0.28 98 1007.4
20260506130546 12 0 0.0 1.6 0.08 0.71 0.28 98 1007.6
20260506125550 12 0 0.0 1.6 0.05 0.69 0.25 98 1007.7
20260506125045 12 0 0.0 1.6 0.05 0.69 0.25 98 1007.8
20260506124549 12 0 0.0 1.6 0.03 0.66 0.23 98 1007.7
20260506124045 12 0 0.0 1.6 0.03 0.66 0.23 98 1007.7
20260506123545 12 61 0.0 1.6 0.03 0.66 0.23 98 1007.7
20260506123049 12 0 0.0 1.6 0.03 0.66 0.23 98 1007.7
20260506122546 12 0 0.0 1.6 0.03 0.66 0.23 98 1007.8
20260506122045 12 61 0.0 3.2 0.03 0.66 0.23 98 1007.8
20260506121552 11 0 0.0 3.2 0.03 0.66 0.23 98 1007.8
20260506121045 11 0 0.0 3.2 0.00 0.64 0.20 98 1007.9
20260506120545 12 0 0.0 3.2 0.00 0.64 0.20 98 1007.8
20260506120052 12 0 0.0 3.2 0.00 0.64 0.20 98 1007.8
20260506115545 11 0 0.0 1.6 0.00 0.64 0.20 98 1007.9
20260506115045 11 0 0.0 1.6 0.00 0.64 0.20 98 1008.2
20260506114551 11 0 0.0 0.0 0.00 0.64 0.20 98 1008.0
20260506114045 11 0 0.0 0.0 0.00 0.64 0.20 98 1008.0
20260506113546 11 0 0.0 0.0 0.00 0.64 0.20 98 1008.0
20260506113048 11 0 0.0 1.6 0.00 0.64 0.20 98 1008.0
20260506112545 11 0 0.0 1.6 0.00 0.64 0.20 98 1007.9
20260506112045 11 313 0.0 1.6 0.00 0.64 0.20 98 1007.9
20260506111550 11 0 0.0 3.2 0.00 0.64 0.20 98 1007.8
20260506111045 11 0 0.0 3.2 0.00 0.64 0.20 98 1007.8
20260506110548 11 0 0.0 3.2 0.00 0.64 0.20 98 1007.8
20260506110049 11 0 0.0 1.6 0.00 0.64 0.20 98 1007.7
20260506105545 11 313 0.0 1.6 0.00 0.64 0.20 98 1007.8
20260506105046 11 0 0.0 1.6 0.00 0.64 0.20 98 1007.9
20260506104550 11 0 0.0 1.6 0.00 0.64 0.20 98 1007.8
20260506104045 11 0 0.0 1.6 0.00 0.64 0.20 98 1008.0
20260506103547 11 0 0.0 1.6 0.00 0.64 0.20 98 1007.9
20260506103054 11 0 0.0 1.6 0.00 0.64 0.20 98 1007.8
20260506102546 11 0 0.0 1.6 0.00 0.64 0.20 98 1007.9
20260506102046 11 0 0.0 3.2 0.00 0.64 0.20 98 1008.0
20260506101549 11 0 0.0 3.2 0.00 0.64 0.20 97 1008.0
20260506101045 11 0 0.0 3.2 0.00 0.64 0.20 97 1008.0
20260506100545 11 0 0.0 3.2 0.00 0.64 0.20 98 1007.8
20260506100050 11 313 0.0 3.2 0.00 0.64 0.20 98 1007.8
20260506095546 11 0 0.0 0.0 0.00 0.64 0.20 98 1007.8
20260506095046 11 0 0.0 0.0 0.00 0.64 0.20 98 1007.9
20260506094548 11 0 0.0 0.0 0.00 0.64 0.20 97 1008.0
20260506094046 11 0 0.0 1.6 0.00 0.64 0.20 98 1008.1
20260506093545 11 0 0.0 3.2 0.00 0.64 0.20 97 1008.2
20260506093051 11 0 0.0 3.2 0.00 0.64 0.20 98 1008.0
20260506092546 11 313 0.0 3.2 0.00 0.64 0.20 97 1008.0
20260506092045 11 313 0.0 3.2 0.00 0.64 0.20 97 1008.0
20260506091550 11 0 0.0 0.0 0.00 0.64 0.20 97 1008.1
20260506091044 11 0 0.0 0.0 0.00 0.64 0.20 97 1008.1
20260506090545 11 0 0.0 0.0 0.00 0.64 0.20 97 1008.1
20260506090058 11 0 0.0 0.0 0.00 0.64 0.20 97 1008.1
20260506085545 11 0 0.0 0.0 0.00 0.64 0.20 97 1008.4
20260506085045 11 0 0.0 1.6 0.00 0.64 0.20 97 1008.2
20260506084601 11 0 0.0 1.6 0.00 0.64 0.20 97 1008.4
20260506084045 11 0 0.0 1.6 0.00 0.64 0.20 97 1008.2
20260506083546 11 313 0.0 3.2 0.00 0.64 0.20 97 1008.5
20260506083047 11 0 0.0 3.2 0.00 0.64 0.20 97 1008.3
20260506082545 11 0 0.0 3.2 0.00 0.64 0.20 97 1008.4
20260506082045 11 0 0.0 3.2 0.00 0.64 0.20 97 1008.4
20260506081551 11 0 0.0 3.2 0.00 0.64 0.20 97 1008.4
20260506081045 11 0 0.0 1.6 0.00 0.64 0.20 97 1008.3
20260506080547 11 0 0.0 3.2 0.00 0.64 0.20 97 1008.3
20260506073058 12 0 0.0 3.2 0.00 0.64 0.20 97 1008.2
20260506072545 12 0 0.0 1.6 0.00 0.64 0.20 97 1008.1
20260506072045 12 0 0.0 3.2 0.00 0.64 0.20 97 1008.1
20260506071552 12 332 0.0 3.2 0.00 0.64 0.20 97 1008.2
20260506071045 12 0 0.0 1.6 0.00 0.64 0.20 97 1008.2
20260506070547 12 0 0.0 1.6 0.00 0.64 0.20 97 1008.3
20260506062047 12 0 0.0 1.6 0.00 0.64 0.20 97 1008.5
20260506061601 12 0 0.0 4.8 0.00 0.64 0.20 97 1008.4
20260506061047 12 306 0.0 4.8 0.00 0.64 0.20 97 1008.5
20260506060546 12 329 0.0 4.8 0.00 0.64 0.20 97 1008.4
20260506051047 12 0 0.0 3.2 0.13 0.64 0.20 97 1009.2
20260506050547 12 0 0.0 3.2 0.15 0.64 0.20 97 1008.9
20260506050108 12 0 0.0 4.8 0.18 0.64 0.20 97 1008.7
20260506045047 12 0 0.0 0.0 0.23 0.61 0.18 97 1008.7
20260506044558 12 0 0.0 0.0 0.23 0.61 0.18 97 1008.6
20260506044045 12 0 0.0 1.6 0.23 0.61 0.18 97 1008.5
20260506043544 12 0 0.0 3.2 0.23 0.61 0.18 97 1008.5
20260506043100 12 0 0.0 3.2 0.23 0.61 0.18 97 1008.7
20260506042546 12 0 1.6 3.2 0.23 0.61 0.18 97 1008.5
20260506042045 12 0 0.0 1.6 0.18 0.56 0.13 97 1008.5
20260506041552 12 315 0.0 1.6 0.13 0.51 0.08 97 1008.5
20260506041044 12 0 0.0 1.6 0.13 0.51 0.08 97 1008.3
20260506040545 12 0 0.0 1.6 0.10 0.48 0.05 97 1008.2
20260506040105 12 0 0.0 1.6 0.08 0.46 0.03 97 1008.2
20260506035544 12 0 0.0 1.6 0.03 0.41 0.41 97 1008.0
20260506035045 12 0 0.0 1.6 0.00 0.38 0.38 97 1008.1
20260506034605 12 0 0.0 3.2 0.00 0.38 0.38 97 1008.0
20260506034044 12 0 0.0 4.8 0.00 0.38 0.38 97 1008.0
20260506033546 12 315 1.6 4.8 0.00 0.38 0.38 97 1008.0
20260506033052 12 0 0.0 0.0 0.00 0.38 0.38 97 1007.9
20260506032545 12 0 0.0 0.0 0.00 0.38 0.38 97 1007.9
20260506032046 12 0 0.0 0.0 0.00 0.38 0.38 97 1007.8
20260506031554 12 0 0.0 0.0 0.00 0.38 0.38 97 1007.8
20260506031049 12 0 0.0 0.0 0.00 0.38 0.38 97 1007.8
20260506030545 12 0 0.0 0.0 0.00 0.38 0.38 97 1007.5
20260506030055 12 0 0.0 0.0 0.00 0.38 0.38 96 1007.5
20260506025544 12 0 0.0 0.0 0.00 0.38 0.38 96 1007.4
20260506025044 12 0 0.0 0.0 0.00 0.38 0.38 96 1007.5
20260506024557 12 0 0.0 0.0 0.00 0.38 0.38 96 1007.4
20260506024045 12 0 0.0 0.0 0.00 0.38 0.38 96 1007.6
20260506023546 12 0 0.0 0.0 0.00 0.38 0.38 96 1007.4
20260506023051 12 0 0.0 0.0 0.00 0.38 0.38 96 1007.4
20260506022544 12 0 0.0 0.0 0.00 0.38 0.38 96 1007.3
20260506022044 12 0 0.0 0.0 0.00 0.38 0.38 96 1007.4
20260506021602 12 0 0.0 0.0 0.00 0.38 0.38 96 1007.7
20260506021047 12 0 0.0 0.0 0.00 0.38 0.38 96 1007.7
20260506020545 12 0 0.0 0.0 0.00 0.38 0.38 96 1007.6
20260506020051 12 0 0.0 0.0 0.00 0.38 0.38 96 1007.5
20260506015547 12 0 0.0 3.2 0.00 0.38 0.38 96 1007.6
20260506015046 12 0 0.0 3.2 0.00 0.38 0.38 96 1007.5
20260506014555 12 206 0.0 3.2 0.00 0.38 0.38 96 1007.2
20260506014046 12 0 0.0 3.2 0.00 0.38 0.38 96 1007.0
20260506013545 12 311 0.0 3.2 0.00 0.38 0.38 96 1007.1
20260506013059 12 311 1.6 3.2 0.00 0.38 0.38 96 1007.0
20260506012545 12 0 0.0 3.2 0.00 0.38 0.38 96 1007.0
20260506012049 12 0 0.0 3.2 0.00 0.38 0.38 95 1007.1
20260506011603 12 236 0.0 1.6 0.00 0.38 0.38 95 1007.0
20260506011044 12 0 0.0 1.6 0.00 0.38 0.38 95 1007.0
20260506010544 12 0 0.0 3.2 0.00 0.38 0.38 95 1006.9
20260506010053 12 0 0.0 3.2 0.00 0.38 0.38 95 1006.9
20260506005547 12 236 0.0 3.2 0.00 0.38 0.38 95 1006.7
20260506005047 13 0 0.0 3.2 0.03 0.38 0.38 95 1006.6
20260506004550 13 0 0.0 3.2 0.03 0.38 0.38 95 1006.6
20260506004046 13 236 0.0 3.2 0.03 0.38 0.38 95 1006.7
20260506003545 13 0 0.0 3.2 0.03 0.38 0.38 95 1006.7
20260506003052 13 0 0.0 3.2 0.03 0.38 0.38 95 1006.7
20260506002545 13 0 0.0 3.2 0.03 0.38 0.38 95 1006.5
20260506002045 14 236 0.0 1.6 0.03 0.38 0.38 95 1006.4
20260506001554 14 0 0.0 1.6 0.03 0.38 0.38 95 1006.6
20260506001048 14 0 0.0 1.6 0.03 0.38 0.38 95 1006.5
20260506000548 14 0 0.0 3.2 0.03 0.38 0.38 94 1006.3
20260506000051 14 0 0.0 3.2 0.03 0.38 0.38 94 1006.4
20260505235548 14 0 1.6 3.2 0.03 0.38 0.38 94 1006.4
20260505235045 14 0 0.0 3.2 0.00 0.36 0.36 94 1006.4
20260505234606 14 279 0.0 3.2 0.00 0.36 0.36 94 1006.7
20260505234047 14 0 0.0 3.2 0.00 0.36 0.36 94 1006.6
20260505233547 15 0 0.0 3.2 0.00 0.36 0.36 94 1006.7
20260505233054 14 0 0.0 3.2 0.00 0.36 0.36 94 1006.7
20260505232547 14 307 0.0 4.8 0.00 0.36 0.36 94 1006.6
20260505232047 15 0 0.0 4.8 0.00 0.36 0.36 93 1006.7
20260505231605 15 307 0.0 4.8 0.00 0.36 0.36 93 1006.5
20260505231045 15 307 1.6 4.8 0.00 0.36 0.36 93 1006.5
20260505230545 15 261 0.0 3.2 0.00 0.36 0.36 93 1006.2
20260505230054 15 0 0.0 1.6 0.00 0.36 0.36 93 1006.3
20260505225547 15 0 0.0 3.2 0.00 0.36 0.36 92 1006.2
20260505225047 15 242 0.0 3.2 0.00 0.36 0.36 92 1006.2
20260505224554 15 0 0.0 6.4 0.00 0.36 0.36 92 1006.1
20260505224050 15 309 1.6 6.4 0.00 0.36 0.36 92 1005.9
20260505223546 15 309 3.2 6.4 0.00 0.36 0.36 91 1005.5
20260505223103 15 162 0.0 4.8 0.00 0.36 0.36 90 1005.3
20260505222548 16 162 0.0 4.8 0.00 0.36 0.36 89 1005.4
20260505222051 16 265 0.0 6.4 0.00 0.36 0.36 88 1005.5
20260505221558 16 273 1.6 16.1 0.00 0.36 0.36 86 1005.6
20260505221048 16 286 1.6 16.1 0.00 0.36 0.36 86 1005.6
20260505220546 16 145 1.6 8.0 0.00 0.36 0.36 89 1005.7
20260505220054 16 268 1.6 8.0 0.00 0.36 0.36 89 1005.8
20260505215547 16 168 1.6 9.7 0.00 0.36 0.36 92 1005.7
20260505215047 16 0 1.6 9.7 0.00 0.36 0.36 93 1005.6
20260505214614 16 239 1.6 9.7 0.00 0.36 0.36 93 1005.6
20260505214046 16 213 1.6 4.8 0.00 0.36 0.36 92 1005.8
20260505213545 16 0 0.0 3.2 0.00 0.36 0.36 92 1005.6
20260505213057 17 0 0.0 3.2 0.03 0.36 0.36 92 1005.4
20260505212545 17 0 0.0 3.2 0.03 0.36 0.36 92 1005.1
20260505212048 16 213 1.6 4.8 0.05 0.36 0.36 92 1004.8
20260505211551 17 0 1.6 6.4 0.10 0.36 0.36 92 1004.5
20260505211047 17 349 0.0 6.4 0.13 0.36 0.36 92 1004.3
20260505210546 16 349 0.0 6.4 0.15 0.36 0.36 92 1004.2
20260505210056 16 124 1.6 6.4 0.36 0.36 0.36 92 1004.2
20260505205547 16 0 3.2 6.4 0.36 0.36 0.36 90 1004.6
20260505205048 16 332 3.2 8.0 0.36 0.36 0.36 90 1005.0
20260505204553 16 314 3.2 8.0 0.36 0.36 0.36 90 1005.5
20260505204046 15 347 1.6 4.8 0.36 0.36 0.36 90 1005.7
20260505203546 15 325 1.6 4.8 0.36 0.36 0.36 89 1005.6
20260505203052 15 0 1.6 9.7 0.33 0.33 0.33 88 1005.6
20260505202547 15 0 0.0 9.7 0.33 0.33 0.33 87 1005.7